Location: Crayja
(6.2254°N, 10.6273°W)
Time: 08:23:00
(UTC+00:00)

STARLINK-69 - Pass Details

Date: 17 February 2020
Orbit: 529 x 530 km, 53.0° (Epoch: 09 April)

Event Time Altitude Azimuth Distance (km) Brightness Sun altitude
Exits shadow 05:50:31 29° 239° (WSW) 976 4.5 -17.4°
Maximum altitude 05:50:36 29° 237° (WSW) 976 4.5 -17.4°
Drops below altitude 10° 05:54:07 10° 175° (S) 1,766 6.4 -16.5°
Sets 05:56:32 0° 164° (SSE) 2,655 7.5 -15.9°
